Temp
8 9 9 9 9 9 9 9 9 9 10 10 10 10 10 10 11 11 11 11 11 11 11 11 11 11 11 11 10 11 11 10 11 10 10 12 15 15 16 16 16 15 15 15 16 16 17 17 17 18 19 19 19 19 20 20 20 22 22 21 21 20 21 21 22 22 23 24 23 23 22 24 25 24 22 21 22 23 22 22 21 19 17 17 17 17 17 17
8 8 9 9 9 9 9 9 9 9 9 10 10 10 10 10 11 11 11 11 11 11 11 11 11 11 11 11 11 11 10 10 10 9 11 15 14 13 15 17 17 16 15 15 15 15 16 16 16 16 18 19 19 19 20 20 20 22 21 21 21 21 22 22 23 23 22 23 23 22 22 22 24 24 23 23 24 22 23 23 21 21 20 17 16 16 16 16
8 8 8 8 9 9 9 9 9 9 9 9 10 10 10 10 10 11 11 11 11 11 11 11 11 11 11 11 11 11 11 11 10 10 14 16 14 14 16 17 17 17 16 15 15 15 16 16 16 16 18 18 18 19 20 20 20 21 20 21 21 21 22 21 22 23 22 22 23 23 21 22 23 22 23 24 23 22 23 24 23 23 23 20 16 15 16 16
8 8 8 8 8 8 9 9 9 9 9 9 9 10 10 10 10 10 11 11 11 11 11 11 11 11 11 11 11 11 11 11 11 12 15 15 14 17 18 17 18 18 16 15 15 15 15 15 16 16 17 18 18 18 19 20 20 20 20 22 22 21 21 22 22 22 22 21 23 23 22 23 22 21 22 23 23 23 24 24 24 25 25 21 16 15 15 15
8 8 8 8 8 8 8 8 9 9 9 9 9 9 10 10 10 10 10 11 11 11 11 11 11 11 11 11 11 11 11 12 13 14 14 13 15 17 17 17 17 17 16 15 15 15 15 15 16 16 17 18 18 18 19 20 20 20 20 22 22 20 22 23 22 22 22 21 22 23 23 23 21 22 23 23 24 25 25 24 24 24 23 21 17 15 15 15
7 8 8 8 8 8 8 8 8 9 9 9 9 9 9 10 10 10 10 11 11 11 11 11 11 11 11 11 11 10 11 13 14 14 13 13 14 15 15 16 15 15 15 14 14 15 15 15 16 17 17 17 18 18 19 19 19 20 20 21 21 20 22 23 22 22 21 22 23 23 22 22 22 23 22 22 24 25 25 24 23 22 19 18 17 15 16 16
7 7 8 8 8 8 8 8 8 9 9 9 9 9 9 9 10 10 10 10 11 11 11 11 11 11 11 11 11 10 10 12 14 14 14 14 14 14 14 14 14 13 13 14 14 14 15 16 16 17 17 17 18 18 19 19 19 20 20 21 21 20 21 22 22 22 21 23 23 22 21 21 23 23 20 21 24 25 23 20 19 18 16 16 16 16 16 16
7 7 7 8 8 8 8 8 9 9 9 9 9 9 9 9 9 10 10 10 10 11 11 11 11 10 10 10 10 10 9 11 14 15 14 15 14 14 13 13 13 12 13 13 14 14 15 16 16 17 17 17 17 17 18 19 19 19 20 21 21 20 20 21 21 21 22 22 21 21 22 22 23 21 21 22 24 25 22 19 19 17 16 17 17 17 16 16
7 7 7 8 8 8 8 8 8 8 9 9 9 9 9 9 9 10 10 10 10 10 11 11 11 10 10 10 10 10 10 11 15 16 15 15 15 14 13 13 13 12 13 13 14 15 15 16 16 17 18 17 17 17 18 18 19 19 19 20 21 21 20 19 20 21 21 21 20 21 22 22 21 20 22 23 24 23 21 21 20 19 19 18 18 17 16 17
7 6 7 7 8 8 8 8 8 8 8 9 9 9 9 9 9 9 9 10 10 10 11 10 11 10 10 10 10 10 11 13 15 16 16 15 15 14 14 13 13 13 12 13 14 15 15 16 16 17 18 17 17 17 18 18 18 18 19 20 20 20 19 18 20 20 20 20 20 21 22 22 20 20 23 24 23 21 21 22 19 19 22 19 17 17 16 16
7 7 6 7 7 8 8 8 8 8 8 9 9 9 9 9 9 9 9 9 10 10 11 11 11 10 10 10 10 10 12 14 15 15 15 15 15 14 14 14 14 13 12 13 13 14 15 16 16 16 17 17 17 17 17 18 18 18 18 19 19 20 19 18 19 19 19 20 20 20 22 21 19 20 22 24 23 21 22 23 20 20 22 19 17 17 16 16
7 7 6 6 7 8 8 8 7 7 8 9 9 9 9 9 9 9 10 9 9 10 10 11 10 10 10 10 10 11 13 14 14 15 15 14 14 14 14 14 14 14 13 12 13 14 15 16 17 17 17 17 16 17 17 17 17 18 18 19 19 19 19 18 18 18 19 20 20 20 21 20 20 20 22 23 23 22 22 23 21 21 20 18 17 17 16 16
7 7 7 6 7 7 8 8 8 7 8 8 9 9 9 9 9 9 10 9 9 10 10 10 10 10 10 10 11 11 13 14 14 14 14 14 14 14 15 15 15 15 14 13 13 14 15 15 16 17 16 16 17 17 17 16 16 18 18 18 19 19 19 19 19 18 19 20 21 21 20 21 21 21 23 23 22 22 22 22 22 21 19 18 17 16 17 16
7 7 7 7 7 7 8 8 8 7 7 8 8 9 8 9 9 9 9 9 9 9 10 10 10 10 10 11 12 12 13 13 13 14 14 14 14 14 14 15 15 14 14 14 14 14 15 15 15 15 15 16 16 16 16 16 16 17 17 17 18 18 19 20 19 18 19 19 20 21 20 20 22 21 22 22 21 23 23 23 23 21 20 19 18 17 17 16
7 7 7 7 7 7 7 8 8 7 7 8 8 8 8 9 9 9 9 9 9 9 9 10 9 10 10 11 11 12 13 12 12 13 14 14 14 13 14 14 14 14 14 14 14 15 15 15 15 15 15 14 15 16 17 16 16 17 17 17 17 17 18 20 19 18 19 19 19 21 19 19 21 22 23 21 20 22 23 23 23 22 22 20 19 17 17 17
7 7 7 7 7 7 7 7 8 7 7 8 8 8 8 9 9 8 9 9 9 9 9 9 9 9 10 10 11 12 12 11 12 13 14 14 14 13 13 13 14 13 13 13 14 14 14 14 15 15 14 14 15 16 16 16 16 16 17 17 17 16 17 19 18 17 19 19 18 19 19 19 21 22 23 22 20 21 22 23 23 23 22 21 20 19 18 17
6 7 7 7 7 7 7 7 7 7 7 7 8 8 8 8 8 8 8 8 8 8 8 9 9 9 10 10 10 10 11 11 12 13 14 14 13 13 12 12 12 13 13 13 13 14 14 14 14 14 14 15 15 15 16 16 16 16 16 17 17 17 17 18 19 18 18 19 19 19 19 19 21 21 22 21 20 20 21 22 22 22 22 21 21 20 19 19
7 7 7 7 7 7 7 7 7 7 7 7 7 7 7 8 8 7 8 8 8 8 8 8 9 9 10 10 10 10 11 11 12 13 13 13 13 13 12 12 12 13 13 13 13 13 13 14 14 14 14 14 15 15 16 17 17 17 16 16 17 17 16 17 19 18 17 18 18 18 18 18 20 21 22 21 19 19 20 21 22 21 21 21 21 21 20 19
7 7 7 7 7 7 7 7 7 7 7 7 7 7 7 7 7 7 7 7 7 7 8 8 9 10 10 10 10 10 11 11 12 12 12 13 12 12 13 12 12 12 13 13 13 13 13 14 13 14 14 14 15 15 16 17 17 17 17 17 17 17 17 16 18 18 17 18 18 18 18 18 19 19 21 21 20 19 19 19 20 20 20 20 20 20 20 20
7 7 7 7 7 7 7 7 7 7 7 6 6 6 6 7 6 6 7 7 7 8 9 9 9 10 10 10 10 10 11 11 11 11 11 12 12 12 12 12 12 12 12 13 13 13 13 13 13 13 14 15 15 16 16 17 17 17 17 17 17 17 17 17 18 18 18 18 18 17 18 18 18 18 19 20 20 19 19 19 19 19 19 20 20 20 20 20
7 7 7 7 7 7 7 7 7 7 7 6 6 6 6 7 7 7 7 7 7 8 9 9 9 10 10 10 9 10 11 10 11 11 11 12 12 12 11 12 12 12 12 13 13 14 14 13 13 14 14 15 15 16 16 16 16 16 16 16 16 16 17 17 17 18 17 17 18 18 17 17 18 18 19 19 19 19 19 19 19 19 19 19 19 19 20 19
7 7 7 7 7 7 7 7 7 7 6 6 6 6 7 8 8 8 8 7 8 8 7 8 8 9 10 10 10 11 11 10 10 10 11 12 12 12 11 11 12 12 13 13 13 14 14 14 14 14 15 15 15 15 15 15 15 15 15 15 15 16 16 16 17 18 17 17 18 18 18 17 18 18 18 19 19 19 19 19 19 20 19 19 19 19 20 20
7 7 7 7 7 7 7 7 7 7 6 6 6 6 7 8 8 9 8 7 8 8 7 8 8 8 9 9 10 11 10 10 10 10 10 11 11 12 11 10 11 12 12 13 13 13 13 14 15 15 15 14 14 14 14 14 14 14 14 15 15 16 16 16 16 17 17 17 18 17 17 17 18 18 18 18 19 19 19 19 19 19 20 20 20 20 20 20
7 7 7 7 7 7 7 7 6 6 6 6 6 6 7 7 8 9 8 7 7 8 8 8 8 9 9 9 10 10 10 11 10 10 10 10 11 12 11 11 11 11 12 12 13 13 13 15 16 15 15 14 14 14 14 14 14 14 14 14 15 16 16 16 16 17 17 17 17 17 16 17 18 18 17 17 18 18 19 19 19 18 18 19 19 20 20 20
7 7 7 7 7 7 7 6 6 6 6 6 6 7 7 7 8 8 7 6 6 7 8 9 9 9 10 10 9 9 10 11 11 11 10 10 11 11 11 12 11 11 11 12 12 13 13 15 15 15 14 14 13 13 14 14 14 14 14 15 15 16 16 16 16 16 16 16 17 17 16 17 19 19 18 18 18 18 19 19 19 19 18 18 18 19 19 19
6 6 6 7 7 7 6 5 6 6 6 5 6 7 7 7 8 7 7 6 6 7 8 8 9 10 11 10 9 10 10 10 11 11 10 10 11 12 12 11 12 11 12 12 12 12 13 15 15 14 14 14 13 13 14 14 13 14 15 15 15 15 16 16 16 16 16 16 16 16 16 17 19 19 19 18 18 18 19 19 19 20 19 19 18 18 19 19
6 6 6 7 7 6 5 5 6 6 6 6 7 7 7 7 7 6 6 6 7 8 8 7 9 10 11 10 10 10 10 10 11 11 10 11 12 13 12 11 12 11 12 12 12 12 13 13 14 13 13 13 13 13 14 14 13 14 16 16 15 15 15 15 15 15 15 16 15 16 16 16 17 19 19 18 18 18 18 19 19 19 19 19 19 19 19 19
6 6 6 6 6 6 6 6 6 6 6 6 7 7 7 7 6 6 6 6 7 9 8 8 9 10 10 10 10 10 11 11 11 10 11 11 11 12 11 11 12 11 12 12 11 13 14 13 13 13 13 13 13 14 15 14 14 14 16 16 16 15 15 15 15 14 15 15 15 15 16 16 16 18 19 18 18 18 17 18 18 19 19 19 19 19 19 19
6 6 6 6 6 6 6 6 6 6 6 7 7 7 7 6 6 6 6 6 9 10 8 9 10 9 9 9 10 11 11 10 10 10 11 10 11 11 11 11 12 11 12 12 12 14 14 13 13 13 13 13 14 15 15 14 14 15 16 16 16 15 15 15 14 14 14 14 15 15 15 15 16 18 18 17 17 18 18 18 18 19 19 19 19 19 19 19
6 6 6 6 6 5 5 5 5 6 7 7 7 7 6 6 6 6 6 7 10 10 8 8 10 9 9 9 9 10 11 10 9 10 10 10 10 10 10 11 12 11 11 12 12 13 13 12 13 13 13 14 15 15 15 15 14 15 15 15 15 14 14 14 13 14 14 14 15 16 16 15 15 18 19 18 18 19 19 19 19 18 18 19 19 19 19 19
6 6 6 5 5 5 5 5 5 6 6 6 6 6 6 6 6 6 7 8 9 9 8 7 9 9 9 9 9 9 10 10 9 9 9 9 9 10 10 10 11 11 11 11 11 12 12 11 12 13 14 14 15 14 13 13 14 15 15 14 14 14 13 13 12 13 14 15 16 16 16 15 15 17 19 20 20 20 19 20 20 19 19 19 19 19 19 19
5 5 5 5 5 5 5 5 6 6 6 5 6 6 6 6 6 6 7 8 8 9 9 8 8 9 8 9 9 9 10 10 9 8 8 9 9 9 10 10 11 11 10 10 11 11 11 11 12 12 12 14 14 13 12 12 13 14 14 14 14 14 14 14 14 13 14 15 16 17 16 15 15 17 19 20 21 21 20 19 20 20 20 19 19 19 19 18
5 5 5 5 5 5 5 6 6 6 5 5 6 6 6 5 6 7 7 7 8 8 9 9 9 9 8 9 9 9 10 10 10 9 8 9 9 9 10 11 11 12 11 11 11 10 10 11 12 12 12 13 14 13 12 12 12 13 13 13 14 14 14 14 14 14 14 15 16 16 16 15 16 18 19 19 20 20 20 19 19 20 20 20 19 19 19 18
5 5 5 5 5 5 6 5 6 6 5 5 6 6 6 5 6 8 7 7 7 7 8 9 9 9 9 9 10 10 10 9 10 9 9 8 9 9 10 10 11 11 12 11 11 10 10 11 11 12 12 13 13 14 14 13 13 13 14 14 14 14 14 14 14 14 14 15 15 15 15 15 16 19 20 20 20 20 20 20 19 18 19 19 19 18 18 18
5 5 5 5 5 5 5 5 5 5 5 5 5 6 6 6 7 8 7 8 8 7 8 8 8 9 8 9 10 10 10 10 10 9 9 9 9 9 10 10 10 11 12 11 11 11 11 11 12 13 13 13 13 14 15 14 13 13 14 14 13 15 15 15 15 15 15 15 14 14 15 16 17 18 19 19 19 19 19 19 19 19 19 18 18 18 18 18
5 5 5 5 5 5 5 5 5 5 5 5 5 6 6 7 8 8 8 9 8 8 9 8 8 8 8 9 9 9 10 10 9 9 9 9 10 10 10 10 11 11 12 12 12 11 10 11 12 12 13 13 13 14 14 14 14 13 13 13 13 14 15 15 14 15 15 14 14 15 15 16 17 18 19 19 18 18 19 19 18 18 18 18 18 19 18 18
4 4 4 4 5 5 5 5 5 5 5 5 5 6 7 7 8 9 9 9 8 9 9 8 8 8 8 9 9 9 10 10 9 9 9 9 10 10 10 11 11 12 12 13 13 12 12 12 12 11 12 12 12 13 14 15 15 13 13 14 14 13 14 14 13 14 14 13 15 16 15 16 16 17 19 20 19 18 19 19 18 18 18 18 18 18 18 18
4 4 4 5 5 5 5 5 5 5 5 5 5 6 7 7 7 8 9 9 9 9 9 8 8 8 8 9 9 9 9 9 9 10 10 9 10 11 11 11 11 12 13 13 13 13 13 12 11 11 12 11 12 13 13 13 13 13 13 15 14 13 13 13 13 13 14 13 14 16 15 16 16 16 19 20 19 19 18 18 18 18 18 17 17 17 17 17
4 4 4 5 5 5 5 5 5 5 5 5 6 6 7 7 7 8 8 9 9 9 8 8 9 8 8 8 9 10 9 9 10 10 10 10 10 11 11 11 11 11 12 13 12 12 13 13 12 10 10 11 12 12 12 12 12 11 12 14 14 14 14 14 13 14 14 14 14 15 15 16 16 17 19 19 19 19 18 18 19 19 19 18 18 18 17 17
4 4 5 5 5 5 5 5 4 4 5 5 6 6 6 7 7 8 8 8 8 9 9 9 9 8 8 8 8 9 9 9 10 10 10 10 10 10 11 11 11 11 12 12 12 12 12 13 12 9 8 10 11 12 12 13 12 11 12 12 13 14 13 13 14 14 14 14 14 14 14 16 18 18 19 19 20 20 19 19 19 20 20 19 18 18 18 17
4 4 5 5 5 5 5 5 5 5 5 6 6 6 6 7 8 8 8 7 7 8 8 9 9 8 8 8 8 8 9 9 10 10 10 10 10 10 11 12 12 11 11 11 11 12 12 12 12 10 9 10 12 12 12 13 13 12 12 12 13 13 13 13 13 13 14 14 14 14 14 16 18 18 18 19 19 19 19 19 19 19 19 19 18 18 17 17
3 4 5 5 5 5 4 5 5 5 5 5 6 6 6 7 8 8 8 7 7 7 7 8 8 9 9 8 8 8 8 9 9 10 10 10 10 10 11 12 12 11 11 10 10 11 12 12 11 10 10 10 11 10 9 11 14 13 12 13 13 13 13 13 12 13 14 13 14 15 13 16 18 17 17 19 18 17 17 18 18 18 17 17 17 17 17 17
3 4 5 5 5 4 4 5 5 5 5 5 6 7 7 7 7 7 7 7 7 7 7 7 8 9 9 9 9 8 8 8 9 9 10 10 10 11 11 12 12 11 11 10 10 11 12 12 11 10 10 10 11 10 10 11 13 13 12 13 13 13 13 13 14 14 14 13 14 13 12 15 18 17 16 17 17 15 15 17 18 18 18 17 17 17 17 17
3 4 4 4 5 4 5 5 5 5 5 5 5 6 6 6 7 7 7 7 7 7 7 8 8 8 9 9 9 8 8 8 9 9 10 10 10 11 11 11 11 11 11 11 11 12 12 12 11 9 9 9 10 10 10 10 11 12 12 12 12 13 13 13 14 14 13 13 14 13 12 15 18 17 16 16 15 15 16 16 17 18 19 18 17 17 17 16
3 4 4 4 4 4 5 5 5 5 5 5 5 5 6 6 6 7 7 8 7 7 8 8 8 8 8 8 8 8 8 8 8 9 9 9 10 11 11 11 11 11 11 12 12 12 12 11 11 10 9 9 9 10 10 11 11 11 12 12 12 12 12 12 13 12 12 13 14 13 13 15 17 17 16 16 16 16 16 16 16 16 17 17 17 17 16 16
3 4 4 4 3 4 4 5 5 5 5 5 5 5 5 6 6 7 7 8 7 8 8 8 8 8 8 8 8 8 8 8 8 8 9 9 10 10 10 11 11 11 12 12 12 11 11 11 11 11 11 11 11 12 12 12 11 11 11 12 12 12 12 12 12 12 12 13 13 13 14 14 15 16 16 16 17 16 16 16 16 15 16 17 17 17 17 17
3 4 4 4 4 4 4 4 4 5 5 5 5 5 6 6 6 6 7 7 7 7 8 8 8 8 8 8 8 8 8 8 7 7 8 9 9 10 9 10 11 11 12 12 11 11 11 10 11 11 12 12 13 13 13 12 12 11 11 11 11 11 11 11 11 12 13 12 12 13 14 13 14 15 16 16 16 16 16 16 16 16 16 16 16 16 16 16
3 3 3 3 4 4 5 5 4 4 5 5 5 6 6 5 6 6 6 6 6 7 7 7 7 8 8 8 8 8 8 8 7 7 8 8 8 9 9 9 10 11 11 10 9 10 10 10 11 11 11 12 12 12 12 13 12 12 12 11 11 11 11 11 11 12 13 12 11 13 14 13 14 15 15 15 16 15 16 16 16 16 15 14 14 15 16 16
2 3 3 3 3 4 5 5 5 4 4 5 5 5 6 5 6 6 6 5 5 6 7 7 7 7 8 8 8 8 8 8 8 8 8 8 8 9 9 9 9 10 10 9 8 9 10 10 11 11 11 11 12 11 12 12 12 12 11 11 11 11 11 11 11 12 12 12 12 13 13 13 14 14 15 15 15 15 15 15 14 14 14 13 14 14 15 16
1 1 2 2 3 3 4 4 5 4 4 5 5 5 6 5 6 6 6 6 6 6 6 6 7 7 7 8 8 8 8 9 9 9 8 8 8 9 9 10 10 9 9 9 8 8 9 10 11 11 10 11 11 11 11 11 11 11 11 10 11 11 10 11 11 11 12 11 12 12 12 12 13 14 14 15 15 14 14 14 14 14 14 13 13 13 13 14
0 0 1 1 2 4 4 4 5 5 4 4 5 5 6 6 6 6 6 7 7 6 6 6 7 7 7 7 7 8 9 9 9 10 10 9 9 10 10 11 10 9 8 9 9 8 8 9 10 10 9 10 11 11 10 10 10 10 10 10 10 10 10 10 11 11 11 11 11 11 11 12 13 14 14 14 14 14 14 14 14 14 14 13 13 13 13 13
-0 0 1 1 2 4 4 4 5 5 5 5 5 5 6 6 7 6 6 7 7 7 7 7 7 7 7 7 7 8 9 9 10 10 10 10 10 10 10 10 10 10 9 9 9 9 8 9 9 9 9 10 10 10 10 9 9 9 10 11 10 10 10 11 11 11 12 12 11 11 11 13 14 14 14 14 14 13 13 14 14 14 14 13 13 14 14 13
Height
800 800 800 799 799 799 799 799 799 800 800 800 800 800 801 801 801 801 801 801 802 803 804 805 805 806 806 806 807 807 806 805 804 804 801 794 793 796 796 798 799 800 802 802 803 804 804 804 804 804 804 805 806 805 804 804 805 807 816 825 829 830 827 820 818 817 813 811 810 809 808 808 807 806 804 805 806 807 808 807 807 807 806 806 805 804 805 806
797 797 797 797 797 797 797 797 797 797 798 798 798 799 799 799 799 799 800 800 800 801 802 803 804 805 805 806 806 806 806 804 803 800 793 790 793 794 794 796 798 799 801 802 803 804 805 805 805 805 806 806 807 805 805 805 805 810 819 825 825 823 817 812 810 810 811 810 808 809 809 808 807 806 804 806 809 809 809 808 807 807 806 806 805 805 806 807
795 794 794 795 795 795 795 794 795 795 795 796 796 797 797 797 797 797 798 798 798 799 800 802 803 804 805 805 806 806 805 804 802 794 788 788 790 791 792 793 795 798 800 801 803 804 805 805 806 806 807 809 808 807 807 805 806 810 817 822 818 813 811 810 808 807 807 807 806 807 808 808 806 806 805 807 811 811 810 807 807 806 804 805 807 807 807 808
792 792 792 792 792 792 792 792 792 792 793 793 794 795 795 795 796 796 796 797 797 798 798 800 801 802 804 804 805 805 805 805 797 787 785 786 786 787 788 789 793 796 798 800 802 803 804 805 806 806 809 811 809 808 809 806 806 810 813 814 810 809 810 807 806 805 805 806 805 806 807 807 806 806 806 808 811 813 808 804 803 802 801 804 807 807 807 808
790 790 789 789 789 789 789 790 790 790 791 791 792 792 792 793 794 794 795 795 795 796 796 798 799 801 802 803 804 804 807 805 791 783 785 784 783 783 784 787 791 794 797 799 801 802 804 805 805 807 810 812 811 811 809 804 804 809 809 805 804 808 808 803 803 804 804 806 805 806 806 805 806 806 806 807 810 808 802 799 799 799 799 802 804 806 807 808
788 787 787 787 787 787 787 787 787 788 788 788 789 790 790 791 792 792 793 793 794 794 795 796 797 799 800 802 803 803 806 799 786 784 785 783 782 781 783 786 789 793 796 798 800 802 803 804 806 809 811 812 812 812 808 804 804 808 807 803 803 806 804 801 801 803 803 804 804 804 804 804 806 806 806 807 805 801 797 796 797 797 799 800 802 804 806 807
785 785 784 784 784 784 784 784 785 785 786 786 787 787 788 789 790 791 790 791 792 793 794 795 795 797 799 801 802 803 803 793 784 785 784 783 783 781 783 785 788 792 794 796 798 800 801 803 806 808 810 812 812 811 808 805 805 808 808 802 801 802 801 800 799 801 802 801 802 803 803 804 805 806 808 806 800 796 796 796 796 796 797 799 802 803 803 804
783 782 782 781 781 781 782 782 782 783 783 784 784 785 786 787 788 788 789 790 790 791 792 793 794 795 798 799 800 802 798 789 784 784 783 783 783 783 785 786 788 790 791 794 795 798 800 801 804 805 809 811 809 810 808 808 809 809 808 802 799 801 801 800 800 801 801 801 802 803 804 803 803 805 806 803 797 795 796 797 796 797 798 799 800 801 802 803
780 780 779 779 778 778 779 779 779 780 781 781 782 782 783 784 785 786 787 787 788 790 790 791 792 793 796 796 799 798 787 782 784 783 783 783 783 785 787 787 789 790 791 793 793 796 798 799 801 801 805 808 808 809 808 811 812 807 806 802 799 800 800 802 802 801 801 801 803 804 804 801 802 805 803 797 794 795 796 797 797 797 798 799 799 800 800 801
777 778 777 776 776 776 776 776 777 777 778 778 779 780 781 782 783 784 785 786 787 787 788 790 790 792 794 793 797 794 779 779 783 782 783 783 783 785 787 788 789 790 791 792 793 794 795 797 798 799 802 804 806 808 808 810 809 805 805 803 801 800 801 804 802 801 802 802 802 803 803 801 803 806 802 794 792 794 796 796 798 797 797 797 798 798 799 799
775 775 775 774 773 773 773 773 774 775 775 776 777 778 779 779 781 782 783 784 785 785 786 787 788 790 791 790 792 786 778 779 780 779 782 782 783 784 785 788 788 790 791 791 792 792 794 796 796 799 803 804 806 808 807 805 804 804 804 805 804 801 802 804 804 803 804 802 801 802 801 801 805 806 801 793 791 794 794 796 797 797 796 796 797 797 798 797
772 772 772 772 771 770 770 770 771 772 773 773 774 775 776 777 778 779 781 782 783 784 784 785 787 787 788 787 782 779 778 779 778 779 779 780 782 783 784 786 787 788 789 790 792 792 795 796 796 800 802 802 806 809 806 803 804 803 804 807 806 803 802 801 803 804 803 802 799 802 806 803 804 804 796 790 791 793 794 795 796 796 795 796 796 796 796 795
770 769 769 769 769 768 767 768 769 770 770 771 771 773 774 775 776 777 778 780 781 782 782 784 785 786 785 779 772 775 779 778 777 778 778 779 781 781 783 784 785 786 787 789 792 793 795 796 796 798 800 802 806 806 803 803 805 805 806 809 809 809 803 795 800 802 802 802 796 802 811 803 798 797 791 789 791 793 794 794 794 795 795 795 795 795 795 794
768 767 766 766 766 766 765 765 766 767 768 769 769 771 772 773 774 775 776 778 779 780 781 782 784 785 781 772 768 773 776 776 777 778 778 779 780 781 782 783 784 786 786 789 791 793 795 795 796 798 800 802 803 802 804 807 807 808 811 811 812 814 803 791 797 801 803 802 795 801 811 802 793 792 789 788 790 791 792 792 791 792 793 793 793 794 793 791
766 765 764 764 763 763 763 763 764 765 766 767 767 769 769 771 772 773 774 776 777 778 779 779 781 783 778 771 768 770 773 775 776 777 778 778 779 780 781 782 784 785 787 788 790 793 794 794 796 800 802 803 803 805 808 810 809 809 813 812 812 813 803 793 795 797 799 800 797 802 810 805 794 789 786 787 789 790 790 788 788 788 788 789 790 791 790 788
764 762 761 761 761 761 761 761 762 763 764 764 766 767 767 769 770 771 772 774 776 777 779 779 778 780 778 770 766 768 770 770 772 776 778 777 779 779 781 782 783 785 787 789 790 792 793 795 797 800 802 804 806 809 812 814 813 810 809 809 809 811 809 801 797 795 794 797 799 801 806 803 794 787 784 784 787 788 788 787 785 785 784 785 786 787 787 787
762 760 759 758 758 759 759 760 760 761 762 763 764 765 766 767 768 769 770 772 774 775 777 777 776 779 774 766 766 767 765 765 768 774 776 777 778 779 781 782 783 785 786 788 791 792 794 796 799 800 802 804 806 811 814 813 810 807 808 807 805 807 811 807 799 796 795 797 800 800 802 799 790 786 784 783 786 787 787 786 783 782 782 782 784 785 785 785
760 758 756 756 756 756 757 758 758 759 760 761 762 764 765 765 766 768 769 771 773 775 777 776 776 778 768 761 765 765 762 764 767 770 774 776 778 779 781 782 783 784 786 789 791 793 795 796 799 802 803 803 803 806 807 799 796 802 807 806 804 805 808 807 801 797 798 798 801 802 800 798 792 787 783 782 786 787 786 784 782 781 781 782 782 783 783 783
758 756 754 754 754 754 755 755 756 758 759 760 761 763 764 763 765 767 767 769 771 773 772 769 769 768 761 757 760 761 762 765 766 769 772 774 777 779 781 783 783 784 787 790 791 791 794 796 799 801 800 797 795 795 794 790 792 797 799 800 804 806 806 806 801 796 797 799 802 801 797 796 795 791 785 782 784 786 786 785 785 783 782 782 781 781 781 780
756 754 753 752 752 752 753 753 755 756 757 759 760 762 763 764 767 768 766 767 766 765 762 760 760 759 757 758 759 761 763 765 767 769 771 773 776 779 782 783 784 786 787 787 788 789 792 796 796 794 791 788 789 790 790 792 794 795 797 799 802 804 803 802 800 796 796 799 799 797 795 794 792 791 787 782 781 784 785 786 785 783 782 781 779 779 778 777
753 752 751 750 750 750 751 752 752 753 756 758 759 761 761 760 764 764 762 763 762 761 760 758 760 760 758 759 759 759 762 766 767 767 770 773 775 780 783 783 785 786 784 784 786 786 790 793 790 785 783 785 788 790 792 795 796 798 802 804 803 803 801 799 798 794 795 799 796 794 796 794 791 791 788 784 782 782 782 784 782 780 780 779 778 777 775 774
750 749 748 748 748 748 749 750 751 752 755 757 758 758 757 755 757 757 758 762 758 757 760 759 761 761 758 759 760 759 761 767 769 767 768 771 774 777 781 783 783 783 782 784 785 785 786 785 780 778 781 786 790 791 794 798 799 802 806 807 805 802 800 800 798 795 797 800 796 795 795 791 789 789 786 784 781 776 777 778 777 776 776 776 775 775 774 772
747 746 745 745 745 746 747 748 749 750 753 755 755 755 755 754 756 755 758 763 758 753 756 758 760 761 759 758 758 759 761 764 768 768 766 770 772 772 776 782 782 781 782 782 782 783 782 777 773 776 782 788 792 793 797 800 802 803 805 807 803 799 801 804 801 798 798 796 794 796 796 790 786 786 784 783 779 773 772 772 772 772 771 770 769 770 770 769
744 743 743 742 743 744 744 746 748 748 750 752 752 752 753 754 756 757 759 763 759 752 750 752 755 756 755 756 757 758 760 759 761 764 764 767 770 770 773 777 780 782 781 780 780 779 776 771 770 776 782 786 792 796 797 801 801 800 801 802 799 798 801 802 801 799 797 796 794 798 801 789 781 783 782 780 779 774 770 769 769 769 767 766 765 765 766 766
742 740 740 740 741 742 743 745 746 746 749 750 749 750 753 755 755 757 761 764 761 754 749 749 751 749 749 754 757 757 758 756 755 757 760 762 764 767 770 772 776 781 780 778 780 779 774 769 770 776 780 784 791 794 794 795 798 798 795 794 795 798 801 801 802 801 803 804 796 800 808 789 770 775 776 773 777 774 769 767 764 762 762 764 764 763 763 763
740 738 738 738 739 740 743 743 742 745 747 747 746 748 752 753 754 757 761 765 760 750 748 749 748 743 741 747 752 756 759 754 750 752 755 759 761 762 767 769 771 775 776 777 779 777 773 769 770 774 778 783 788 789 787 789 797 797 787 786 793 798 801 801 802 805 808 808 798 799 808 794 770 767 768 768 772 770 766 764 757 754 757 758 759 759 759 759
738 736 736 736 738 739 741 740 740 743 743 743 744 748 751 752 755 757 761 766 754 739 743 748 743 736 733 737 744 753 755 747 747 753 752 755 759 760 766 768 768 770 769 775 779 772 769 771 772 773 777 781 783 784 781 785 794 790 780 784 792 797 798 798 803 807 805 803 803 801 804 803 784 763 761 765 768 767 766 761 753 750 753 753 754 755 755 755
736 735 735 735 736 737 737 737 739 739 739 741 743 746 749 751 755 757 762 764 742 726 734 737 733 732 731 733 737 744 745 740 745 753 750 753 757 758 764 764 763 766 764 771 776 765 761 769 771 772 776 777 777 776 777 783 789 784 779 783 786 790 794 797 803 807 805 804 807 804 803 806 787 758 758 766 763 764 762 758 753 749 751 752 751 751 750 750
735 734 733 734 735 735 736 737 737 737 738 740 743 745 746 751 756 757 762 755 726 717 728 726 724 730 733 736 738 738 741 743 746 747 748 753 755 756 762 760 758 764 763 767 770 762 761 766 766 770 774 773 771 771 772 779 783 780 779 781 784 789 792 797 802 804 808 807 801 799 801 804 784 753 757 769 761 755 753 753 753 748 749 750 749 748 747 747
734 733 733 733 733 734 736 736 736 738 739 740 742 743 746 752 754 755 757 743 720 716 726 725 721 724 730 738 740 737 738 744 747 746 749 754 754 756 760 758 758 764 767 768 767 764 763 765 764 766 767 766 766 769 771 773 776 778 781 784 789 794 795 799 803 804 806 799 790 788 788 797 786 752 746 758 750 744 747 748 748 747 747 747 746 746 745 744
733 732 732 732 732 732 733 733 735 738 739 739 740 743 748 752 752 751 744 733 724 721 725 730 727 722 726 733 736 737 737 740 746 750 752 754 757 759 759 760 762 765 769 772 770 766 767 768 765 763 762 762 765 770 773 774 775 778 783 788 792 797 799 801 805 806 800 787 777 775 778 790 786 752 736 742 738 737 742 742 742 744 743 742 742 742 741 741
732 730 730 730 730 731 731 732 733 736 738 740 742 745 748 751 750 746 738 732 729 723 721 728 729 726 727 728 730 734 735 737 742 748 750 751 756 756 753 754 755 758 764 769 768 767 768 767 764 763 762 761 764 771 777 779 779 779 783 788 793 796 796 794 797 796 788 776 766 766 776 783 776 750 736 737 735 733 735 736 737 737 736 737 738 737 736 738
729 727 727 727 727 727 729 730 732 734 736 740 743 744 748 752 745 735 736 736 731 724 720 720 723 727 730 728 728 730 733 735 737 744 748 747 750 750 747 746 744 746 752 758 765 769 771 767 764 767 763 758 760 767 773 775 777 779 779 783 787 788 789 789 787 785 781 773 763 765 774 774 765 749 735 731 732 731 731 731 732 731 731 733 733 733 734 734
726 724 724 724 725 725 726 729 730 731 735 739 742 741 744 749 738 726 730 732 728 728 725 721 721 725 728 726 724 726 732 735 734 739 746 748 749 749 747 747 745 744 746 753 761 765 769 767 761 761 758 754 754 754 758 764 771 773 770 775 780 777 780 781 778 778 776 770 768 772 774 767 757 742 726 722 726 727 725 725 729 731 730 730 731 732 733 732
722 721 721 721 722 723 724 727 729 731 735 738 740 738 737 737 731 727 728 726 727 727 723 723 723 724 727 726 722 722 725 729 732 736 741 743 742 742 742 743 744 743 744 751 755 755 761 757 747 746 747 748 752 750 751 760 771 772 768 772 774 766 767 769 768 769 770 771 774 772 767 756 744 733 724 724 725 725 723 722 726 728 727 730 732 730 730 730
719 719 719 719 719 720 722 725 727 730 734 736 739 735 729 726 723 722 719 718 723 723 721 726 726 724 727 726 725 724 721 725 731 735 738 738 734 733 734 734 734 736 736 742 746 750 758 752 741 745 747 746 748 748 749 754 761 768 769 767 765 761 762 766 769 768 769 776 770 760 759 753 744 736 725 722 725 725 725 724 725 726 726 730 729 726 726 727
718 718 718 717 717 718 719 722 725 728 731 735 737 730 723 721 718 715 712 714 719 718 719 725 725 725 727 725 725 724 723 727 729 729 733 735 731 727 729 729 728 729 728 730 735 740 746 745 743 746 747 746 747 748 750 748 748 759 763 759 762 768 768 772 778 773 774 778 763 750 755 753 750 743 724 717 723 724 723 723 725 727 727 728 727 723 723 723
717 717 716 714 714 715 717 721 724 727 729 731 731 726 721 720 717 715 712 712 715 716 721 725 723 724 726 722 720 720 724 727 725 723 726 729 726 720 723 727 727 726 724 724 729 732 736 741 745 746 745 747 749 750 752 750 749 754 754 750 758 768 769 773 777 771 771 774 760 749 751 748 747 741 725 719 720 719 723 724 725 726 725 726 725 722 721 721
718 717 715 712 711 713 716 719 722 726 729 727 725 724 721 719 717 716 714 713 712 714 721 721 719 723 726 722 717 716 721 722 720 720 721 722 722 717 716 721 724 726 724 724 729 731 731 735 742 749 751 749 749 750 750 750 754 757 754 752 753 755 757 761 762 758 759 764 757 750 748 740 734 730 724 720 713 713 722 725 722 722 720 721 720 717 718 718
718 718 715 711 711 713 715 719 722 725 725 722 720 720 719 717 716 715 715 715 714 714 716 715 716 722 725 725 722 719 719 718 717 718 716 715 716 716 716 716 720 725 725 727 730 731 732 733 737 752 760 753 747 745 740 739 745 753 755 756 754 753 755 757 756 752 753 759 756 752 746 733 721 718 718 716 710 709 716 719 718 716 713 713 714 712 713 715
719 719 714 711 712 713 716 719 720 720 720 718 718 719 718 714 713 713 714 716 718 717 715 712 713 716 719 723 726 724 722 719 716 716 714 712 713 715 714 712 715 721 726 733 733 729 730 731 735 749 757 750 741 737 735 733 735 743 749 749 748 749 753 758 759 754 751 753 749 747 744 729 715 715 714 710 709 708 711 714 714 713 712 711 710 711 712 714
721 718 714 712 713 713 716 718 717 717 718 716 714 715 715 711 710 712 713 715 718 718 717 715 714 713 715 717 720 723 725 721 716 713 710 710 712 711 709 707 709 715 723 730 729 724 724 727 735 746 749 745 741 743 746 740 733 737 743 742 743 745 748 752 754 749 747 747 742 742 744 728 713 713 713 709 710 713 714 713 712 713 714 712 710 711 712 713
721 717 713 712 713 714 715 716 715 715 715 714 712 711 711 711 712 712 712 715 717 717 717 717 715 712 712 712 714 721 725 720 715 711 706 707 708 706 704 705 708 713 719 724 725 724 724 726 735 746 747 744 742 742 745 742 736 739 742 740 740 739 738 737 736 736 739 742 741 747 748 729 711 712 715 712 713 716 716 713 711 710 709 710 711 711 711 712
721 717 713 712 712 714 715 713 713 713 713 714 715 713 712 712 711 710 711 712 714 715 715 714 713 712 711 711 711 716 721 719 715 712 709 707 704 701 702 704 706 710 712 714 715 718 721 722 731 746 755 755 752 748 746 744 739 736 734 732 731 730 732 734 733 736 740 738 737 743 742 726 712 712 714 714 714 715 714 711 710 708 706 707 709 710 710 710
720 716 714 713 712 713 713 711 710 711 712 715 716 715 714 712 710 708 708 708 709 711 712 710 709 710 711 712 712 713 718 719 716 713 711 709 705 701 702 702 703 705 704 703 705 710 714 716 720 733 743 746 745 739 733 731 731 730 728 727 728 730 734 736 737 741 742 735 733 737 735 723 713 709 709 710 711 710 709 709 710 710 708 708 708 708 708 708
720 716 714 714 714 713 712 710 711 711 711 715 716 714 713 712 709 707 707 707 708 708 708 707 707 710 711 713 714 714 715 718 719 716 712 709 705 701 701 700 700 701 701 703 707 711 714 713 711 714 715 713 713 709 706 710 721 727 726 724 726 728 730 734 739 739 736 733 732 730 727 724 718 712 708 707 707 707 705 705 707 710 710 708 707 705 705 705
721 717 715 715 714 713 712 711 712 711 711 713 714 711 711 711 709 709 708 707 706 706 708 708 707 708 709 711 714 713 711 714 718 718 714 710 707 703 702 701 700 698 700 704 709 711 714 713 709 708 706 700 698 701 702 706 713 718 720 721 723 725 729 734 736 730 728 734 733 723 722 726 720 710 706 705 706 706 704 702 704 707 707 707 706 706 706 706
720 718 716 716 714 712 710 709 710 711 711 712 710 707 708 710 709 708 708 708 708 707 708 709 707 705 703 704 708 709 708 711 715 715 713 711 710 708 704 703 702 698 700 707 710 709 711 710 705 705 706 701 700 705 705 704 707 711 715 717 719 725 730 732 731 724 723 730 728 719 719 720 712 706 704 703 703 704 702 702 702 703 705 706 708 708 707 705
722 720 718 717 715 711 708 707 708 711 712 712 710 706 706 708 707 704 705 710 710 706 706 707 704 702 700 700 703 704 704 706 708 708 708 708 708 706 704 704 703 699 701 708 711 710 709 705 700 703 706 701 702 708 706 705 708 710 711 713 715 720 725 726 725 722 720 722 719 715 715 712 708 706 701 696 699 702 703 703 703 703 704 707 708 707 706 705
728 726 722 720 717 713 710 708 706 709 710 709 707 704 702 704 703 701 702 705 706 705 705 703 697 696 698 699 701 700 696 696 696 695 699 704 703 702 700 696 695 699 704 706 709 712 712 705 699 703 708 703 702 707 708 708 710 710 712 716 716 719 724 724 721 719 719 721 718 716 718 714 707 703 698 694 698 702 701 701 700 700 701 704 706 707 706 705
731 729 725 724 718 711 708 707 705 706 706 705 704 701 700 700 699 700 700 697 697 700 700 696 692 694 697 698 699 695 689 688 686 683 687 693 692 690 688 685 686 695 703 703 703 708 711 708 702 706 712 705 699 704 711 713 713 714 716 719 718 718 718 716 712 710 712 716 718 721 722 712 698 695 697 695 696 699 698 696 696 695 697 702 704 703 702 701
731 728 725 725 718 707 704 705 704 703 701 699 699 698 696 695 694 699 700 694 690 691 692 692 694 697 699 698 693 684 679 680 681 681 684 686 684 684 684 683 682 686 693 698 699 702 706 706 705 710 710 703 697 703 712 717 718 715 710 707 708 709 707 706 707 706 705 708 712 713 708 697 690 692 696 693 691 695 695 692 692 694 696 699 699 696 694 694
Wind_Speed
25 24 24 24 24 23 23 23 22 23 23 23 23 22 21 21 20 19 20 21 21 19 18 18 15 12 11 9 7 8 9 11 15 14 15 22 26 24 17 11 7 4 5 9 10 8 8 7 8 8 2 1 0 1 0 1 1 2 3 3 3 4 4 5 6 5 3 1 3 3 1 5 1 3 2 1 3 2 1 2 2 3 2 2 4 2 12 23
25 25 25 24 24 24 24 23 23 23 23 23 23 23 22 22 21 20 19 20 21 21 19 17 16 13 12 11 9 9 10 14 16 17 25 30 27 25 24 22 16 10 9 10 7 3 2 3 7 9 3 1 1 1 1 1 2 2 3 3 4 5 5 6 6 5 2 1 3 2 1 3 3 3 2 1 3 4 0 4 4 5 5 2 3 8 18 22
26 26 25 25 24 24 24 24 23 23 23 23 23 23 23 23 22 20 20 19 20 22 22 19 17 14 13 12 10 10 11 13 12 16 28 29 26 27 26 25 21 17 16 13 7 1 0 2 5 5 2 1 1 0 1 1 2 3 3 3 6 6 4 5 5 6 5 3 2 1 1 1 2 2 1 2 1 3 4 5 2 4 7 2 2 10 16 18
26 26 26 25 25 25 25 24 24 24 24 23 24 23 23 23 22 21 20 19 19 22 23 21 17 15 14 12 10 10 8 9 7 9 16 15 15 23 25 24 21 18 18 15 9 6 4 3 2 1 2 1 2 1 2 3 2 2 4 5 6 5 4 6 7 7 5 4 2 1 1 3 2 1 1 5 4 2 6 7 7 8 8 6 4 8 13 15
26 27 26 25 25 25 25 24 24 24 24 23 24 23 23 23 23 22 20 19 18 19 22 21 18 16 15 13 11 9 3 4 4 3 4 5 9 18 20 22 21 19 19 15 9 6 7 3 2 2 2 1 1 1 3 4 3 2 4 6 5 6 5 6 7 7 4 3 2 1 1 2 1 1 3 7 5 5 7 6 8 9 7 8 8 10 11 11
26 26 26 25 25 26 26 25 24 24 24 23 23 23 23 23 23 22 21 20 19 19 21 21 20 17 16 15 12 9 5 1 1 6 8 7 3 10 12 15 19 21 18 14 8 3 5 3 3 2 2 1 3 3 5 3 3 2 4 5 5 7 5 4 6 7 5 5 4 2 1 1 2 2 3 7 7 7 6 6 6 7 8 9 10 11 10 10
26 26 25 25 25 26 26 25 25 24 24 23 23 23 23 23 23 23 22 20 19 19 19 21 23 19 17 15 12 10 7 7 5 5 8 11 9 6 1 8 14 20 17 14 11 6 5 5 5 4 4 1 3 5 5 3 1 3 4 5 6 8 6 5 6 6 7 6 6 3 1 1 3 3 1 5 9 9 6 5 3 4 9 11 9 10 11 12
26 27 26 26 26 25 26 26 25 25 25 24 23 23 23 23 23 23 23 21 19 19 18 21 24 21 18 16 11 8 9 14 15 8 1 5 9 12 8 3 11 18 19 17 15 10 7 7 7 4 4 3 3 3 3 1 2 4 5 5 4 5 6 6 4 5 6 5 3 3 1 6 7 4 2 6 10 9 5 2 2 5 8 8 9 11 11 11
24 26 26 25 26 25 25 26 25 26 25 24 23 23 24 23 23 23 23 22 20 20 19 20 24 22 21 16 8 8 11 20 23 14 8 7 5 8 7 2 8 17 17 18 17 12 8 7 7 5 4 5 4 3 2 2 4 5 6 5 4 3 4 4 5 6 5 3 3 3 6 8 5 3 2 8 9 5 2 3 5 6 7 7 8 10 11 10
23 25 26 26 26 24 24 25 26 26 25 24 23 24 24 23 24 23 23 23 20 20 19 19 22 23 23 15 9 9 6 14 25 22 19 18 18 17 11 3 6 15 15 13 16 14 8 6 6 3 3 3 4 3 3 4 4 3 5 5 7 5 1 3 6 7 3 2 5 6 9 7 1 3 3 7 7 5 6 4 4 6 7 9 8 8 10 11
22 23 24 25 26 25 24 25 26 26 25 24 23 23 24 23 24 23 23 23 20 20 20 20 21 23 24 14 11 10 2 6 15 17 23 25 25 24 19 11 7 14 15 10 14 16 9 6 8 5 0 3 3 2 3 4 2 2 3 3 8 8 5 3 3 5 2 2 6 7 8 5 2 2 6 8 4 5 7 5 5 6 7 8 8 8 8 10
22 23 24 24 25 25 24 24 25 26 25 24 23 23 24 24 24 24 24 23 22 20 20 21 19 23 23 12 14 14 5 9 9 7 17 20 20 21 18 14 10 14 17 12 11 15 12 8 11 7 3 3 4 1 3 3 2 1 4 2 7 8 9 7 4 4 5 3 5 6 5 8 4 5 10 10 4 4 5 6 6 7 7 6 7 7 6 10
23 23 23 23 23 23 23 23 24 25 25 23 23 23 23 24 23 23 23 23 22 20 20 20 18 21 19 8 17 23 14 14 10 4 8 10 11 13 13 11 9 13 17 16 12 13 14 10 10 7 2 4 3 2 0 2 2 2 3 2 3 5 9 8 6 6 7 5 6 6 5 9 7 9 11 9 6 4 3 6 7 7 7 6 6 6 7 10
23 22 22 23 23 22 22 22 23 24 25 24 23 23 22 23 23 23 23 23 23 20 19 19 17 19 15 5 12 25 28 20 10 7 7 6 5 6 9 9 8 11 15 18 14 11 14 9 6 3 1 2 1 1 2 3 1 2 2 2 3 5 6 4 6 9 7 5 6 7 7 8 6 8 11 8 7 8 7 9 8 7 7 7 6 7 8 9
24 22 21 21 23 22 21 21 21 22 24 23 23 23 22 21 22 22 22 22 21 20 19 18 16 12 8 6 7 19 31 25 13 12 9 6 5 3 8 11 11 12 14 17 15 11 12 6 4 2 0 1 1 2 2 2 1 2 4 4 5 7 4 2 3 11 10 4 6 8 6 6 6 8 9 7 6 8 10 11 10 9 9 8 7 8 8 9
26 24 21 20 22 22 22 21 21 22 23 22 22 22 22 21 21 21 21 21 19 17 15 13 14 13 6 4 7 12 21 23 21 19 12 9 7 2 6 11 11 12 12 14 13 9 8 5 1 1 1 2 2 2 2 1 2 3 6 6 6 7 4 2 3 7 10 4 5 9 6 2 5 8 9 7 8 9 10 11 11 11 10 9 7 7 7 7
26 24 22 20 21 22 22 21 20 21 21 21 20 21 20 18 18 18 18 19 17 15 14 10 10 12 7 2 4 8 13 18 23 26 20 15 10 4 5 6 8 11 10 9 10 8 6 6 2 1 2 2 4 4 2 6 8 7 6 5 6 6 5 4 2 2 5 5 5 8 8 6 5 7 8 7 7 9 9 11 12 11 9 8 7 6 6 7
26 24 22 20 20 21 22 21 20 20 20 20 19 19 18 16 15 15 15 15 13 11 12 12 8 6 7 7 5 4 9 16 21 27 26 18 12 8 5 3 6 10 8 5 6 7 5 4 3 3 3 3 5 7 9 10 8 7 7 5 5 5 5 6 4 2 4 5 5 7 10 11 8 8 9 7 5 7 9 10 10 9 8 7 6 6 6 7
26 24 21 20 20 20 20 20 19 19 19 18 17 16 13 11 9 9 11 10 7 5 5 7 10 6 2 4 4 3 6 14 17 20 22 17 10 7 4 2 6 9 7 5 6 8 6 4 4 6 7 9 11 12 15 9 1 4 8 8 7 5 5 4 4 4 4 3 6 10 12 10 10 10 11 10 5 7 9 8 7 8 7 7 7 7 8 8
26 24 22 21 20 19 20 20 19 19 18 16 15 10 6 4 2 4 7 8 8 8 7 3 9 10 2 3 4 7 8 12 10 10 17 17 10 8 2 1 5 5 7 8 7 8 7 7 8 10 13 15 15 12 12 7 3 5 3 3 7 7 7 4 3 5 2 2 6 10 12 11 10 10 11 13 9 7 7 7 7 8 8 8 9 9 9 9
26 24 21 20 20 19 19 19 18 18 16 15 14 7 2 5 5 2 3 5 9 13 13 7 5 9 5 2 6 11 8 7 5 6 18 20 13 10 2 1 6 7 9 8 5 6 7 9 12 15 17 15 13 10 9 9 10 9 2 2 5 8 8 4 4 6 2 3 6 5 8 12 9 7 8 10 11 10 8 8 9 10 9 8 8 10 10 8
27 25 21 19 19 19 19 19 19 18 14 13 13 7 3 7 7 1 3 2 7 12 14 12 7 9 7 2 7 11 5 3 5 5 17 20 12 10 5 4 7 7 9 7 4 6 9 11 15 18 14 10 9 9 9 10 11 9 4 4 5 3 3 2 2 4 2 3 5 3 7 11 8 7 9 9 11 12 9 10 11 11 11 10 8 9 10 9
27 25 22 19 18 18 18 18 17 15 12 12 13 10 6 8 10 4 2 0 5 7 11 12 11 11 10 6 5 10 5 5 7 6 16 18 10 10 8 8 10 8 8 9 8 10 10 11 16 15 10 10 9 7 8 8 9 8 7 7 7 3 2 2 2 2 4 5 4 2 6 9 6 7 8 9 11 12 9 10 11 10 12 13 12 10 10 11
27 24 22 19 17 17 17 16 15 12 12 14 17 17 11 10 13 8 2 0 5 4 7 13 13 11 12 8 5 8 6 6 8 9 16 16 9 8 8 9 12 10 8 11 14 12 10 8 10 11 10 12 10 6 8 9 8 11 11 11 11 7 3 1 2 1 2 4 2 2 6 9 8 9 9 7 8 12 12 11 10 11 12 12 12 11 11 11
26 22 20 18 15 15 14 11 11 11 11 14 19 22 18 14 15 12 4 1 4 2 4 9 8 10 13 10 5 5 4 5 7 12 17 18 13 9 7 6 7 10 11 14 15 12 12 7 8 13 13 12 11 8 11 11 8 10 12 14 15 10 5 2 1 1 2 5 3 2 5 10 9 10 10 7 8 11 12 13 15 14 12 11 11 11 11 10
25 20 17 16 14 13 10 5 7 11 10 13 18 19 18 17 14 11 5 1 4 2 4 7 4 11 16 11 6 4 4 7 7 15 21 22 17 9 7 5 3 9 12 11 8 5 8 7 7 13 14 13 12 11 13 12 8 8 9 13 14 9 9 8 4 3 4 5 2 3 5 10 9 9 10 7 9 14 13 14 19 17 12 11 11 11 11 10
24 19 15 15 14 12 8 3 7 10 7 9 15 16 16 17 14 10 4 3 4 3 7 6 5 11 14 13 15 8 5 6 9 11 18 23 18 8 8 8 5 7 7 5 5 3 7 10 8 10 13 13 12 11 12 12 9 8 5 9 11 12 14 12 6 4 5 3 2 1 5 7 11 12 8 8 10 13 13 16 19 16 12 12 11 10 11 11
23 19 15 14 15 16 12 7 10 11 7 4 9 16 17 16 13 8 3 4 3 4 5 6 7 9 7 12 19 11 4 5 9 8 14 23 18 6 9 13 11 11 9 8 9 5 8 13 12 10 10 10 10 10 10 11 9 8 4 9 10 13 13 10 6 6 5 4 5 5 5 5 12 13 5 6 10 13 14 16 17 15 12 10 11 11 11 12
23 19 14 13 14 16 15 13 11 9 10 7 8 17 22 19 10 4 2 4 1 0 1 5 9 8 5 9 15 13 6 1 2 6 12 17 14 4 5 11 13 10 7 7 9 6 4 9 12 10 8 7 10 11 11 13 11 5 6 6 2 4 7 7 7 7 5 5 8 9 9 7 12 13 6 3 9 14 12 11 13 14 11 9 10 11 11 11
23 18 14 12 12 13 13 15 15 10 9 12 14 21 23 15 5 3 7 4 1 2 1 2 6 10 13 12 11 15 15 4 2 4 7 8 11 7 0 2 6 6 3 4 9 8 2 2 6 7 7 7 7 6 8 13 11 5 7 4 3 3 2 2 3 4 6 7 11 14 16 12 11 14 10 7 10 11 8 8 10 10 9 9 9 9 10 10
26 19 13 10 11 12 9 9 16 16 12 16 22 24 17 7 3 6 7 0 3 2 2 2 3 10 18 16 10 13 16 8 6 7 5 5 9 8 2 1 3 4 5 4 7 9 4 2 3 3 5 6 6 3 1 4 7 6 6 5 1 0 1 0 1 3 6 8 12 17 18 15 12 14 8 6 10 11 8 9 10 9 10 11 10 9 10 10
28 19 13 11 12 14 11 7 12 19 17 19 23 16 7 4 4 5 3 3 2 3 3 3 5 8 14 17 12 12 14 10 9 10 8 8 9 9 8 8 7 5 6 7 9 10 7 5 3 3 2 6 8 6 0 4 6 6 5 6 5 4 4 5 4 4 6 7 8 11 14 13 12 16 13 7 9 10 8 9 10 11 12 10 10 11 10 9
28 19 14 14 14 16 17 12 11 18 20 23 17 6 4 5 5 8 5 0 1 3 1 3 8 9 12 14 11 12 13 9 10 12 10 10 10 12 12 11 12 7 4 9 10 5 4 6 5 3 3 5 10 9 6 3 7 9 7 7 8 5 5 7 6 6 8 9 8 6 10 9 7 11 18 18 15 11 9 9 10 10 11 10 10 10 8 8
27 18 16 15 15 17 19 16 14 20 25 22 10 5 7 6 4 8 10 5 2 2 2 2 9 12 12 13 10 11 11 7 11 13 10 9 8 10 12 10 12 7 2 8 8 6 8 7 7 9 5 7 13 13 10 7 7 10 7 6 7 6 6 7 6 6 7 5 4 3 6 6 5 6 10 13 11 11 14 13 8 8 9 8 7 6 7 8
26 16 14 14 14 16 18 18 18 23 24 14 6 7 9 7 4 4 6 4 2 2 1 2 7 10 10 11 10 12 11 7 11 11 8 10 10 10 12 10 13 10 4 7 6 6 10 7 7 14 9 8 13 12 8 7 6 6 5 7 9 8 8 6 2 3 2 2 1 3 4 4 4 6 7 7 5 6 12 13 10 10 9 7 6 7 8 8
20 12 11 11 15 17 19 19 21 26 20 7 5 8 7 6 5 3 4 4 2 3 1 3 3 7 7 8 9 13 11 5 10 9 4 10 12 12 13 10 14 16 10 8 5 4 8 6 3 8 8 9 13 11 9 9 7 4 5 8 6 4 6 6 4 2 2 4 3 4 4 3 3 7 9 10 6 4 7 8 8 10 8 7 8 10 9 8
12 6 5 8 13 17 19 21 26 28 16 6 7 8 4 4 4 3 4 4 3 4 4 0 3 5 6 7 8 12 11 5 9 9 4 7 9 11 13 10 12 18 15 10 5 3 7 5 1 5 10 10 6 7 8 8 7 5 8 10 3 3 2 2 3 3 4 7 5 5 6 4 5 6 7 9 9 7 8 7 6 7 7 7 9 10 11 9
7 2 4 9 14 16 18 24 28 21 8 5 10 10 4 3 3 2 3 3 4 4 4 3 4 4 6 8 8 12 12 8 10 10 7 6 5 10 15 10 10 17 18 13 6 3 6 4 4 3 8 5 5 7 6 7 3 2 5 8 5 1 3 5 4 4 6 7 6 8 10 6 6 5 4 8 11 9 8 7 6 7 7 8 9 11 11 10
5 1 3 7 11 14 20 27 24 12 4 6 10 10 5 3 3 2 3 2 3 4 5 5 4 3 4 5 6 10 13 11 10 9 9 6 3 10 16 10 9 16 17 14 7 2 6 6 4 2 2 3 6 6 7 7 3 0 2 4 3 3 5 7 5 3 6 7 6 9 10 7 7 7 7 12 16 12 6 5 7 10 10 10 10 10 10 10
4 1 2 3 7 17 25 25 15 6 6 6 6 5 3 2 4 4 4 3 1 2 4 6 6 4 3 3 4 4 9 11 11 8 8 7 4 9 15 11 9 14 15 12 7 0 4 6 5 1 2 2 6 7 11 14 9 4 4 5 5 4 1 2 3 3 5 6 5 7 8 5 4 5 9 14 17 14 7 8 9 10 12 12 11 11 9 7
3 2 2 2 9 22 23 14 6 4 5 5 5 3 1 3 4 4 4 3 2 1 1 3 5 4 4 4 4 4 5 8 11 9 6 7 6 5 11 13 11 13 13 10 8 3 3 6 6 2 1 4 6 6 8 11 10 8 6 7 8 7 4 2 5 4 3 5 6 7 8 6 4 4 7 10 12 9 5 7 9 9 11 11 10 9 7 5
3 2 2 2 14 23 16 5 4 4 4 5 4 2 1 3 4 4 4 2 0 2 1 2 2 3 4 5 5 4 4 5 10 11 7 8 9 5 9 15 13 13 12 10 11 7 3 3 3 3 3 4 4 2 2 3 7 7 7 7 7 7 6 7 9 6 4 6 7 7 8 6 4 4 5 7 7 3 2 6 7 7 9 10 9 7 6 6
2 2 2 5 20 22 9 4 4 4 4 2 1 2 2 1 2 3 4 3 2 1 1 0 2 3 3 4 5 5 5 5 8 11 8 7 11 9 10 15 14 12 11 10 10 7 1 2 4 2 1 1 4 4 3 2 4 5 6 8 9 10 11 11 9 5 4 6 6 7 8 5 3 4 4 5 4 2 3 5 6 7 7 7 8 7 6 6
2 3 2 6 23 21 5 3 5 5 5 1 2 3 1 1 4 5 5 6 4 3 3 4 4 4 3 3 4 5 6 5 5 10 10 6 7 8 10 15 15 12 11 10 9 8 6 5 6 3 2 0 2 3 3 2 4 7 9 12 14 15 15 11 6 3 4 6 8 7 8 6 4 4 4 5 4 3 5 6 6 6 6 5 6 6 6 6
2 3 1 3 13 13 4 2 2 4 5 2 2 4 3 1 3 5 6 6 4 4 5 4 3 4 3 1 1 3 6 6 5 7 9 7 4 2 7 15 16 13 13 13 11 9 7 6 7 7 8 7 7 7 7 7 6 4 6 12 15 15 15 11 6 6 5 6 8 7 5 5 6 7 7 7 7 7 7 6 5 5 5 5 5 5 6 6
2 2 1 3 2 3 3 1 2 1 4 3 3 4 6 6 3 2 5 5 4 5 4 2 2 4 3 3 3 5 6 8 7 4 5 7 5 2 5 13 15 15 16 14 11 6 3 5 8 11 11 11 12 12 8 7 7 6 9 14 15 15 16 12 6 7 7 6 8 8 7 8 10 12 12 10 9 10 10 9 6 4 5 6 7 7 7 6
2 1 1 0 1 1 3 3 2 2 3 4 4 3 7 9 3 1 4 5 4 5 3 2 2 5 5 6 6 7 7 8 7 5 6 7 5 4 1 8 13 17 17 11 8 6 3 6 11 12 14 15 12 8 5 8 9 12 13 15 15 14 14 13 11 12 9 7 10 11 10 12 14 17 17 15 13 12 13 14 10 6 6 7 7 8 8 8
1 1 1 1 1 1 3 4 6 5 3 4 4 2 6 9 7 5 4 2 1 4 4 3 5 10 10 9 8 7 7 8 7 8 8 8 5 3 1 3 8 14 14 8 5 5 4 8 12 13 16 18 12 5 6 9 9 10 12 15 15 12 13 15 16 17 13 10 11 13 15 17 17 18 18 16 14 14 14 13 11 9 7 5 3 5 7 9
1 2 2 1 2 2 2 1 6 9 7 4 4 4 6 8 9 9 3 3 1 5 7 7 9 13 14 11 9 7 8 8 9 10 10 9 9 6 3 2 4 7 11 9 5 3 3 8 12 12 14 18 13 6 6 8 7 8 11 14 14 13 15 16 16 17 18 15 14 16 18 18 14 14 17 16 12 9 9 9 8 9 7 4 4 6 8 9
2 2 2 2 3 3 3 2 5 8 8 7 6 6 7 8 11 9 4 5 7 5 7 13 15 14 14 13 11 11 12 11 12 13 11 11 11 9 7 5 4 5 8 8 5 2 3 6 9 10 9 14 12 8 7 7 7 7 7 8 10 11 12 15 15 16 16 16 16 16 16 14 12 12 16 16 9 6 8 10 10 10 8 6 6 7 8 9
5 6 3 3 3 3 4 3 4 6 6 7 7 5 7 10 10 7 5 8 11 7 9 17 18 11 9 10 12 16 17 16 18 17 13 13 13 10 9 7 7 9 8 7 6 5 5 4 3 6 7 11 11 10 8 5 3 3 4 4 9 12 13 15 15 15 15 14 15 15 13 13 14 13 13 14 12 10 13 15 13 12 9 6 6 9 10 10
9 7 4 3 3 3 4 3 4 6 4 5 9 9 9 9 6 7 6 7 12 13 11 13 13 6 5 10 16 22 20 18 17 12 8 10 9 6 5 5 10 13 11 9 7 5 6 5 3 5 7 9 8 9 8 5 2 5 7 10 13 15 14 13 12 13 15 14 12 13 13 14 15 11 10 14 15 13 14 15 13 11 9 6 8 11 11 11
Wind_Direction
286 284 282 281 280 278 277 275 273 273 271 269 266 265 270 271 268 266 260 250 241 238 242 245 249 248 246 259 270 277 286 289 289 279 257 250 246 243 244 235 211 227 258 278 289 301 319 341 358 360 356 232 26 240 245 126 120 85 108 131 187 188 197 190 187 200 163 226 244 307 226 138 275 264 156 58 26 32 1 318 306 311 282 219 296 323 153 158
285 282 280 279 278 277 276 274 272 271 270 268 266 263 266 269 266 265 264 257 244 237 238 239 241 240 244 252 262 276 286 292 291 274 258 255 255 252 249 244 234 238 259 276 294 340 359 344 348 360 32 191 291 247 207 203 155 132 126 155 215 194 205 199 179 197 177 226 244 291 209 163 211 212 116 207 311 10 231 277 338 327 282 326 25 138 152 157
285 283 280 277 276 276 274 273 271 269 267 266 265 263 263 266 266 264 264 263 250 240 235 234 237 236 239 244 254 269 282 300 294 269 268 266 261 256 251 248 239 233 244 256 264 277 79 315 332 358 41 269 279 229 183 214 186 172 136 170 230 201 212 227 190 199 202 216 255 315 175 189 241 202 120 178 106 14 227 235 246 265 252 243 89 144 154 159
284 282 280 278 276 274 273 271 269 267 266 264 263 262 261 263 266 263 261 261 256 248 238 233 236 233 235 237 238 253 275 311 286 254 280 281 261 256 250 247 239 227 233 242 248 253 272 314 339 82 84 272 305 21 182 221 197 168 152 192 224 179 194 229 204 209 216 209 191 112 354 334 293 177 145 147 119 300 251 233 211 225 222 184 169 164 163 165
281 280 278 277 276 273 272 270 268 266 265 264 262 262 261 261 263 262 260 260 258 255 244 234 233 232 232 229 228 239 249 320 268 187 349 324 257 254 246 240 234 227 227 230 240 252 253 263 88 98 82 230 290 48 231 234 155 155 205 215 204 154 193 225 198 206 202 177 165 84 333 304 172 168 163 153 162 233 237 226 218 226 202 171 175 171 169 174
280 279 276 274 275 273 270 268 267 266 264 264 262 261 261 260 261 261 259 258 257 256 246 235 230 226 226 222 221 222 191 232 296 96 61 38 280 249 238 232 227 225 223 216 215 212 216 188 127 146 116 190 216 194 249 256 145 197 242 240 209 172 198 209 183 200 170 148 184 191 204 129 89 286 202 168 203 227 222 210 215 231 193 167 164 164 173 184
282 278 274 272 273 271 269 266 265 264 263 262 261 261 260 259 258 260 260 256 256 255 248 239 231 224 219 213 212 211 205 250 245 123 70 53 57 56 157 221 215 214 210 197 194 194 199 173 167 166 128 183 214 208 258 284 198 222 239 258 224 187 196 199 176 187 176 174 198 174 109 155 178 252 179 181 233 238 235 231 219 207 166 154 159 172 186 190
283 278 273 270 268 268 269 267 264 262 261 259 258 259 257 257 256 257 260 256 255 254 250 243 233 225 215 201 199 218 222 232 222 199 278 34 45 40 51 157 197 199 197 195 189 186 201 183 179 162 148 209 189 190 257 286 255 221 224 260 233 192 206 215 184 184 199 195 164 120 208 233 200 180 158 218 245 248 243 236 122 128 140 153 173 185 194 196
287 279 272 269 266 264 266 267 265 261 260 257 256 258 256 256 255 255 259 257 254 253 251 245 234 226 215 198 188 233 230 224 221 218 242 258 299 341 15 80 191 194 194 201 196 190 200 185 185 174 164 197 175 185 223 197 234 220 212 250 262 234 213 204 204 211 227 214 133 143 240 253 211 163 239 243 239 228 170 123 126 132 151 181 188 192 196 199
294 285 275 269 266 263 264 265 263 260 259 257 255 256 254 255 253 253 256 256 254 250 251 247 236 225 215 198 192 229 232 227 231 233 240 251 263 278 290 302 195 195 197 201 200 198 197 181 179 148 130 181 176 187 186 183 213 205 202 249 260 265 282 159 204 217 221 242 180 187 239 261 235 186 250 263 238 168 128 132 159 159 177 196 199 202 202 205
300 292 282 273 266 262 261 262 262 259 257 254 253 255 254 254 253 251 252 254 254 249 250 247 239 227 217 202 205 221 154 215 233 233 240 251 257 264 271 267 217 199 201 203 208 203 200 189 158 121 132 181 158 198 236 202 185 156 171 273 271 270 276 168 197 228 175 241 193 180 250 274 49 189 233 253 236 152 157 174 188 191 204 206 205 209 205 216
304 298 289 278 269 265 261 259 261 259 255 253 251 252 253 253 253 251 249 251 253 250 249 247 244 231 219 210 220 215 187 227 234 223 234 244 251 258 265 260 236 211 203 199 211 204 204 200 160 160 216 152 138 218 252 203 157 141 151 255 283 287 270 208 179 211 172 214 183 144 280 267 214 204 231 240 214 148 169 193 208 213 220 214 212 215 211 225
306 300 293 283 273 267 262 258 259 258 254 252 251 249 250 251 252 251 249 250 252 252 249 247 249 238 226 222 224 214 209 231 234 215 226 231 240 251 256 252 236 221 210 202 205 201 206 209 176 181 179 128 173 222 134 111 132 166 153 211 269 290 267 212 170 175 173 202 170 145 255 247 218 213 228 235 205 189 206 222 224 220 226 225 219 220 220 227
307 300 294 288 278 268 261 257 258 260 255 251 251 249 248 249 249 250 249 249 251 253 252 248 250 245 238 234 220 217 218 226 227 198 197 205 218 236 232 222 208 213 212 202 196 201 210 202 157 166 47 130 218 315 42 29 80 153 171 202 204 237 250 196 164 161 175 221 160 160 241 241 238 236 233 231 196 197 220 233 231 221 224 227 220 221 226 227
309 303 294 289 282 271 264 259 257 259 256 252 251 250 248 247 247 248 248 247 248 252 256 255 252 247 252 256 227 218 217 222 225 203 195 202 186 185 205 192 185 197 204 198 191 201 211 193 123 130 192 124 68 37 49 348 351 151 205 210 195 220 242 317 199 168 179 233 161 174 239 250 243 246 239 224 185 191 215 228 230 227 222 220 221 220 227 232
313 307 297 290 282 272 264 261 258 256 255 252 252 251 248 245 245 245 245 247 249 250 253 258 244 233 263 279 207 197 202 211 219 210 209 216 196 165 183 175 171 176 185 189 187 191 189 178 135 118 136 114 144 145 98 259 255 209 214 217 205 210 219 308 281 187 187 195 177 206 235 249 233 244 242 214 180 188 211 226 231 231 227 221 221 220 226 237
315 310 302 293 285 271 261 259 257 253 252 252 251 251 249 247 248 246 243 246 249 248 244 245 232 224 252 299 169 189 195 197 206 207 212 221 213 183 151 156 159 150 143 152 167 176 168 172 183 131 162 156 164 159 166 216 220 216 213 223 218 201 197 208 265 252 188 181 198 223 231 229 243 266 257 231 195 190 205 224 231 232 234 230 224 228 231 234
317 313 303 294 286 273 262 257 255 252 250 249 247 250 250 245 246 248 242 241 246 249 251 246 226 215 243 230 177 197 205 186 190 201 206 215 217 194 157 141 150 135 122 121 153 174 180 179 170 174 190 184 176 181 206 216 209 207 206 220 222 204 209 211 232 240 158 185 206 212 230 232 241 266 266 255 213 201 218 224 234 242 244 246 240 237 239 236
318 314 305 295 285 274 263 256 254 251 249 248 247 252 255 245 250 256 239 226 220 220 244 226 203 204 266 221 163 123 187 181 186 196 195 199 204 180 161 169 154 139 146 168 173 177 180 171 173 197 207 203 197 197 211 216 127 206 213 225 226 224 240 212 230 245 155 175 218 216 234 231 226 240 254 262 228 206 233 234 245 259 257 257 250 240 242 240
318 313 305 296 285 274 261 253 252 249 246 246 243 247 251 225 234 255 226 216 214 221 247 216 196 220 279 40 114 119 143 168 175 179 182 188 171 143 156 208 162 161 172 176 172 168 175 188 196 206 210 209 207 207 218 230 300 273 244 248 226 223 243 204 212 263 167 189 232 220 237 240 227 228 238 251 245 223 237 240 242 248 246 247 245 243 243 240
314 309 303 293 285 274 259 251 248 245 244 238 229 225 209 182 184 209 187 219 228 225 247 260 218 236 254 36 134 134 122 157 174 158 177 184 158 145 215 235 182 194 186 179 158 150 177 202 207 210 211 212 211 210 217 226 250 263 301 328 245 224 242 211 196 246 187 195 244 223 250 255 238 231 239 251 258 246 231 233 242 242 242 243 242 249 251 249
312 306 300 289 282 273 260 251 248 247 241 227 215 211 239 206 199 216 119 221 244 213 227 249 254 262 264 271 168 157 111 134 184 171 176 179 166 169 191 184 198 204 186 179 151 169 196 213 211 210 208 208 211 205 205 217 235 248 256 272 263 222 247 263 205 240 172 194 250 226 251 262 243 227 232 237 252 253 230 223 237 241 246 247 241 246 253 257
311 303 296 287 277 270 260 249 248 247 229 217 215 211 234 222 217 244 114 174 274 207 206 221 228 246 248 258 200 179 169 159 178 195 181 177 177 184 173 173 196 202 191 189 186 192 202 214 212 204 192 198 209 191 183 208 229 232 229 239 246 196 161 277 266 218 198 222 246 226 251 266 252 233 232 227 242 258 248 229 232 235 239 245 242 238 242 246
314 302 292 283 273 265 259 248 243 241 226 224 226 221 223 222 223 227 139 285 274 233 212 204 204 227 231 236 211 185 197 182 173 188 184 178 178 177 173 177 189 197 202 199 201 208 216 213 199 189 184 194 198 169 176 202 222 224 220 225 238 226 188 259 272 203 250 265 270 312 291 273 247 240 244 231 235 254 256 247 243 238 235 241 244 240 237 238
318 303 288 279 269 260 257 250 235 232 226 223 228 229 225 222 224 215 183 284 259 262 224 196 197 216 207 205 199 176 206 213 185 179 178 184 183 168 179 184 178 196 200 199 205 217 226 207 163 184 194 188 185 186 195 199 214 229 221 219 229 227 219 232 137 135 280 276 245 169 270 274 254 236 236 220 213 235 247 251 249 242 235 235 241 241 239 241
322 307 286 273 265 250 244 246 222 218 218 219 227 231 224 219 217 201 180 270 249 229 181 174 181 194 186 177 153 135 218 219 184 172 171 184 191 174 182 180 164 202 193 193 209 219 224 207 164 187 191 182 188 201 203 194 205 234 210 206 219 220 229 230 183 165 223 257 289 146 223 271 276 249 232 202 207 224 229 242 247 244 238 232 233 237 236 240
325 313 289 270 257 230 212 193 194 198 204 221 225 224 218 213 202 173 155 256 237 161 157 178 189 184 182 166 149 153 226 177 146 171 176 181 186 179 189 179 170 201 177 174 210 185 193 203 195 188 184 188 196 203 202 185 199 235 181 167 197 209 223 224 198 207 233 260 322 167 206 260 273 261 232 179 205 228 225 233 245 245 239 237 236 237 235 235
326 316 295 274 253 226 211 185 172 189 209 201 205 211 200 189 180 148 145 241 209 136 157 187 178 170 175 160 155 172 242 140 145 182 179 178 180 177 197 194 190 191 171 175 203 186 180 199 203 192 186 193 199 203 192 175 202 237 166 150 186 204 214 213 203 225 242 250 247 213 190 239 263 261 232 175 217 233 226 227 240 245 240 238 240 238 237 236
325 317 300 277 257 236 224 207 188 202 220 197 184 192 178 163 153 124 227 230 163 42 224 178 167 148 145 160 165 184 206 105 162 173 160 175 190 198 205 203 195 183 169 188 207 207 202 207 199 189 194 196 197 201 182 178 205 218 154 148 140 170 187 194 205 219 223 236 234 211 192 221 262 258 230 201 234 236 232 228 235 244 243 235 238 239 240 244
325 315 300 277 258 242 228 220 218 217 209 197 182 171 159 150 151 208 230 236 1 266 207 166 186 154 150 166 179 192 194 176 78 146 138 165 197 206 309 211 180 148 146 209 219 224 283 264 184 179 206 197 180 191 186 188 191 134 131 149 30 58 133 173 198 209 217 234 234 216 200 204 253 261 234 216 243 243 235 233 233 239 244 238 237 240 241 244
326 313 295 272 251 236 221 219 221 219 212 186 165 152 145 147 200 219 222 228 7 252 137 71 211 157 156 171 183 190 195 183 136 151 147 147 186 195 163 144 143 134 163 191 225 234 257 260 178 191 212 176 147 171 241 179 163 130 132 162 199 176 163 235 125 204 223 229 228 220 209 203 231 257 242 196 235 242 225 230 234 227 232 234 233 235 236 237
325 310 286 262 247 233 225 224 219 222 213 172 152 141 147 195 208 225 256 28 22 233 166 152 194 176 167 175 181 181 189 189 163 163 171 166 178 189 188 185 172 167 177 181 207 224 230 225 223 314 257 165 162 185 133 69 150 176 159 161 193 199 197 212 197 216 236 240 234 212 205 211 231 254 260 234 227 234 223 222 221 220 227 227 227 231 232 232
324 306 278 253 238 231 228 227 220 213 190 162 153 149 185 211 209 211 224 325 223 247 253 162 172 179 177 177 182 180 184 189 168 169 182 180 182 190 194 194 185 185 170 179 195 203 223 238 225 271 289 185 176 184 189 157 171 191 181 176 197 193 206 218 206 223 235 242 249 194 186 214 231 245 252 249 240 235 236 228 213 218 228 225 225 231 234 234
323 300 273 253 239 236 231 225 214 193 168 155 162 183 190 216 217 201 207 206 228 263 319 198 167 169 184 190 187 174 180 192 171 171 180 179 188 192 194 201 199 200 105 165 190 185 197 229 204 194 213 190 189 195 191 169 173 194 187 183 201 198 212 218 207 225 237 251 260 171 174 205 198 207 236 249 249 233 234 234 216 218 231 234 245 249 245 243
320 294 269 253 242 239 227 221 209 182 162 154 191 200 197 211 195 196 213 198 235 253 307 290 177 169 189 199 191 182 187 193 175 175 182 182 191 192 189 195 193 193 174 171 188 189 202 238 211 195 193 169 188 201 175 148 172 202 181 191 211 209 215 236 223 180 195 297 280 183 214 221 214 257 275 279 291 250 242 239 226 231 233 232 254 253 242 240
318 291 267 241 237 232 218 216 199 174 163 159 206 210 213 218 187 173 194 167 173 187 115 337 203 175 193 199 197 199 199 190 172 178 198 192 195 193 189 192 186 186 188 181 177 172 200 236 204 186 200 191 190 191 172 167 174 181 193 203 213 200 203 241 266 183 195 266 236 188 241 274 268 281 276 257 250 250 261 257 237 241 239 227 240 245 241 237
314 278 250 231 237 228 215 208 186 171 169 174 205 217 221 224 200 171 177 156 146 153 128 234 221 188 197 196 200 199 193 185 181 187 198 190 199 195 187 195 191 188 189 185 192 177 184 223 204 158 203 216 184 154 178 196 170 160 202 197 155 65 138 192 255 243 244 256 245 203 221 231 228 253 268 255 243 231 240 247 242 251 250 238 240 245 246 243
304 237 247 247 240 223 208 195 178 170 178 193 209 218 205 220 228 196 190 155 134 145 146 201 213 197 203 200 200 191 183 188 190 194 198 187 199 189 182 191 195 194 196 188 195 202 169 215 286 183 188 190 118 132 194 226 186 151 203 183 156 168 187 185 216 228 227 237 244 236 234 226 213 229 270 265 255 237 221 226 244 251 247 242 245 249 251 249
286 238 290 262 234 213 195 183 171 167 196 197 213 217 193 219 245 249 248 199 146 156 179 212 207 185 208 211 204 186 183 195 194 197 204 191 197 191 182 183 189 198 203 189 188 213 167 193 269 282 153 145 141 166 201 207 201 268 193 173 181 225 202 195 204 224 227 229 238 241 240 232 213 209 226 248 257 254 210 191 234 245 241 238 239 244 243 241
287 270 307 277 217 194 181 173 165 175 199 199 219 215 171 202 222 245 253 229 179 159 189 211 203 188 201 232 263 214 192 203 202 205 209 186 181 196 187 180 181 193 200 194 197 193 130 188 233 315 359 178 172 192 204 200 196 192 179 176 191 207 191 185 209 227 230 228 237 245 242 232 213 194 205 232 255 261 226 190 213 230 235 237 236 241 244 244
303 292 273 273 199 178 168 166 179 191 196 211 222 219 220 190 185 212 223 199 221 243 186 204 208 200 184 193 251 251 207 213 212 212 215 195 191 202 191 184 178 181 186 193 208 197 131 189 206 176 176 200 192 201 218 213 199 190 191 188 191 195 185 211 227 219 218 222 226 244 249 247 244 214 203 221 245 265 240 204 218 229 235 245 248 247 247 241
276 262 265 223 180 169 161 177 202 176 201 221 202 175 187 181 164 183 193 157 268 252 28 24 233 210 184 181 202 212 213 227 219 215 217 207 207 213 194 189 180 173 174 189 206 198 129 137 168 171 182 203 232 249 266 218 184 189 208 200 202 206 191 207 222 206 201 217 219 245 260 257 244 221 219 232 240 261 223 202 221 240 240 249 260 260 254 246
244 252 300 199 179 168 161 207 189 183 219 231 98 170 174 167 163 168 178 175 186 220 218 296 224 215 218 201 181 187 213 229 224 222 221 205 207 212 197 187 177 165 170 193 201 192 133 119 152 173 158 284 298 309 342 20 131 176 214 202 205 212 205 212 221 206 211 209 199 237 252 245 246 228 224 249 253 250 243 219 216 236 242 247 257 264 261 257
271 258 314 209 187 176 177 218 193 209 216 82 17 242 239 138 177 173 180 192 184 164 191 219 224 212 219 218 185 180 199 215 231 228 223 212 213 213 191 183 178 171 179 194 185 178 195 185 159 146 115 99 297 315 322 282 193 194 210 206 206 209 210 219 228 229 241 206 192 226 244 234 255 260 241 265 280 265 251 235 219 234 253 260 263 267 259 258
305 237 317 252 192 183 198 209 171 212 211 175 203 226 230 228 213 194 185 192 186 160 184 222 216 188 183 198 224 199 197 215 238 233 225 222 231 233 186 184 184 185 195 194 179 177 197 192 172 177 182 185 198 208 213 207 195 196 208 211 212 209 206 211 218 222 222 197 195 218 240 246 274 286 279 276 277 271 258 240 224 237 267 280 283 281 270 263
317 235 292 339 223 202 230 182 95 184 202 193 206 210 209 217 250 216 186 200 209 178 187 222 159 166 176 177 228 244 217 215 227 242 243 226 229 275 194 186 188 197 202 191 174 165 186 207 202 201 206 206 206 212 202 157 161 187 195 204 210 208 204 202 210 223 217 212 222 222 223 245 262 267 266 264 265 274 274 263 250 238 254 270 273 277 285 288
325 272 170 316 306 253 225 207 177 181 172 187 203 197 207 216 232 197 194 215 211 182 196 263 178 192 197 178 212 241 224 213 218 229 243 232 244 312 240 183 193 201 198 187 176 170 180 214 210 209 224 230 223 216 172 146 176 197 196 204 210 205 200 201 212 221 212 217 237 230 220 236 247 249 252 255 256 264 271 272 273 258 243 251 262 279 292 291
303 273 195 221 253 224 223 213 204 213 204 184 196 194 206 216 218 214 208 209 197 181 199 248 220 213 213 195 201 227 219 215 218 218 230 232 235 283 269 192 210 206 194 188 191 183 190 215 209 206 225 234 229 203 168 168 184 193 194 205 209 199 196 202 215 222 216 217 234 234 226 230 239 246 251 253 252 254 261 269 278 275 261 253 259 273 274 270
333 298 305 306 276 263 285 207 186 213 226 199 207 220 207 211 215 214 187 105 203 211 203 227 226 216 219 210 204 221 213 208 221 218 215 217 214 211 198 209 243 217 196 195 205 184 182 214 209 200 221 234 225 193 182 186 182 191 202 206 202 195 196 203 215 222 223 227 232 236 239 238 238 248 255 253 250 251 259 265 270 272 264 228 212 235 248 255
356 293 319 331 298 274 279 260 184 208 221 210 222 222 210 217 218 213 183 167 206 207 188 218 227 216 216 214 210 224 217 205 223 224 204 203 211 206 201 201 193 186 189 193 201 193 189 215 206 192 217 236 222 193 191 189 176 191 207 204 197 192 195 206 215 219 223 230 233 238 249 254 247 244 252 258 258 253 260 263 261 261 256 240 237 245 249 251
318 278 281 293 286 248 235 239 201 209 215 214 227 225 222 231 217 204 216 210 212 206 190 216 227 220 215 216 217 230 226 213 223 226 204 198 206 206 210 202 168 165 183 192 187 183 192 210 191 169 210 235 219 197 191 171 144 206 215 190 186 189 197 206 210 212 213 217 227 236 243 250 247 240 246 259 258 250 257 262 262 265 267 262 258 256 250 243
327 286 273 267 268 245 231 223 212 227 223 206 220 220 226 233 195 178 225 231 219 218 210 215 222 216 216 220 222 230 230 221 228 237 220 214 220 220 223 208 183 179 180 187 189 179 185 197 178 166 206 237 220 187 175 150 151 238 225 205 197 197 203 207 210 216 213 206 213 224 227 236 245 241 238 250 251 245 252 257 259 268 274 252 233 240 246 243